Private Wetterstation Wechselburg
Wetterdaten: Freitag, 01.06.2012
Datum Zeit Temp. +2m Bodentemp. Temp.+5cm Temp. Wind Windchill X Diff Temp. Feuchte +2m Feuchte +5cm Sonnenschein Luftdruck Regen Wind Richtung Richtung Sonnenschein UV Taupunkt Windchill Windben
01.06.2012 00:00 14,2 C 22,2 C 15,1 C 14,1 C 13,9 C 0,0 C 90 % 95 % 0 % 1011,4 hPa 0,0 l/m 7,9 km/h (2 Bft) W 270 0 min 0,0 UV-I 12,6 C 13,9 C 12,7 km/h (3 Bft)
01.06.2012 00:13 14,1 C 22,1 C 14,8 C 13,9 C 13,1 C 0,0 C 89 % 95 % 0 % 1011,2 hPa 3,4 l/m 9,8 km/h (2 Bft) NW 315 0 min 0,0 UV-I 12,3 C 13,1 C 32,0 km/h (5 Bft)
01.06.2012 00:16 13,9 C 22,1 C 14,7 C 12,2 C 13,1 C 0,0 C 89 % 95 % 0 % 1011,2 hPa 0,0 l/m 9,3 km/h (2 Bft) W 270 0 min 0,0 UV-I 12,1 C 13,1 C 10,9 km/h (2 Bft)
01.06.2012 00:27 13,6 C 22,1 C 14,5 C 13,4 C 12,7 C 0,0 C 89 % 94 % 0 % 1010,7 hPa 0,0 l/m 9,7 km/h (2 Bft) N 360 0 min 0,0 UV-I 11,8 C 12,7 C 14,0 km/h (3 Bft)
01.06.2012 00:28 13,6 C 22,1 C 14,5 C 13,3 C 12,7 C 0,0 C 89 % 94 % 0 % 1010,7 hPa 0,0 l/m 9,7 km/h (2 Bft) N 360 0 min 0,0 UV-I 11,8 C 12,7 C 14,0 km/h (3 Bft)
01.06.2012 00:30 13,6 C 22,1 C 14,5 C 13,3 C 12,7 C 0,0 C 89 % 94 % 0 % 1010,7 hPa 0,0 l/m 9,7 km/h (2 Bft) N 360 0 min 0,0 UV-I 11,8 C 12,7 C 14,0 km/h (3 Bft)
01.06.2012 00:35 13,6 C 22,0 C 14,5 C 13,3 C 12,7 C 0,0 C 89 % 94 % 0 % 1010,7 hPa 0,7 l/m 8,7 km/h (2 Bft) W-SW 247 0 min 0,0 UV-I 11,8 C 12,7 C 13,7 km/h (3 Bft)
01.06.2012 00:40 13,5 C 22,0 C 14,4 C 13,3 C 12,8 C 0,0 C 89 % 94 % 0 % 1010,7 hPa 0,0 l/m 7,9 km/h (2 Bft) S-SW 202 0 min 0,0 UV-I 11,7 C 12,8 C 6,8 km/h (2 Bft)
01.06.2012 00:45 13,4 C 22,0 C 14,4 C 13,2 C 12,8 C 0,0 C 89 % 95 % 0 % 1011,0 hPa 0,0 l/m 6,9 km/h (2 Bft) W 270 0 min 0,0 UV-I 11,6 C 12,8 C 8,2 km/h (2 Bft)
01.06.2012 00:50 13,5 C 22,0 C 14,3 C 13,4 C 13,1 C 0,0 C 89 % 95 % 0 % 1011,0 hPa 0,0 l/m 6,0 km/h (2 Bft) W-SW 247 0 min 0,0 UV-I 11,7 C 13,1 C 5,1 km/h (1 Bft)
01.06.2012 00:55 13,3 C 22,0 C 14,3 C 13,2 C 12,9 C 0,0 C 89 % 95 % 0 % 1011,0 hPa 0,0 l/m 6,4 km/h (2 Bft) W 270 0 min 0,0 UV-I 11,5 C 12,9 C 8,0 km/h (2 Bft)
01.06.2012 01:00 13,2 C 22,0 C 14,3 C 13,1 C 12,9 C 0,0 C 89 % 95 % 0 % 1011,0 hPa 0,0 l/m 6,8 km/h (2 Bft) SW 225 0 min 0,0 UV-I 11,4 C 12,9 C 13,2 km/h (3 Bft)
01.06.2012 01:11 13,1 C 22,0 C 14,3 C 13,1 C 13,1 C 0,0 C 89 % 95 % 0 % 1011,2 hPa 0,0 l/m 5,5 km/h (1 Bft) N 0 0 min 0,0 UV-I 11,3 C 13,1 C 8,2 km/h (2 Bft)
01.06.2012 01:20 13,1 C 22,0 C 14,3 C 13,2 C 13,2 C 0,1 C 90 % 95 % 0 % 1011,2 hPa 0,0 l/m 5,8 km/h (2 Bft) SW 225 0 min 0,0 UV-I 11,5 C 13,2 C 6,3 km/h (2 Bft)
01.06.2012 01:25 13,1 C 21,9 C 14,2 C 13,2 C 13,2 C 0,1 C 90 % 95 % 0 % 1011,2 hPa 0,0 l/m 6,4 km/h (2 Bft) W 270 0 min 0,0 UV-I 11,5 C 13,2 C 6,8 km/h (2 Bft)
01.06.2012 01:30 13,1 C 21,9 C 14,2 C 13,3 C 13,3 C 0,2 C 90 % 95 % 0 % 1011,2 hPa 0,0 l/m 6,3 km/h (2 Bft) W-SW 247 0 min 0,0 UV-I 11,5 C 13,3 C 7,4 km/h (2 Bft)
01.06.2012 01:35 13,1 C 21,9 C 14,2 C 13,4 C 13,4 C 0,3 C 90 % 95 % 0 % 1011,2 hPa 0,0 l/m 5,6 km/h (1 Bft) SW 225 0 min 0,0 UV-I 11,5 C 13,4 C 5,8 km/h (2 Bft)
01.06.2012 01:40 13,0 C 21,9 C 14,3 C 13,4 C 13,4 C 0,4 C 90 % 95 % 0 % 1011,2 hPa 0,0 l/m 5,5 km/h (1 Bft) W 270 0 min 0,0 UV-I 11,4 C 13,4 C 6,3 km/h (2 Bft)
01.06.2012 01:45 13,1 C 21,9 C 14,3 C 13,3 C 13,3 C 0,2 C 90 % 95 % 0 % 1010,6 hPa 0,0 l/m 5,0 km/h (1 Bft) SW 225 0 min 0,0 UV-I 11,5 C 13,3 C 5,8 km/h (2 Bft)
01.06.2012 01:50 13,1 C 21,9 C 14,3 C 13,2 C 13,2 C 0,1 C 90 % 95 % 0 % 1010,6 hPa 0,0 l/m 4,8 km/h (1 Bft) S-SW 202 0 min 0,0 UV-I 11,5 C 13,2 C 5,3 km/h (1 Bft)
01.06.2012 01:55 13,0 C 21,9 C 14,3 C 13,2 C 13,2 C 0,2 C 90 % 95 % 0 % 1010,6 hPa 0,0 l/m 4,7 km/h (1 Bft) W-SW 247 0 min 0,0 UV-I 11,4 C 13,2 C 6,3 km/h (2 Bft)
01.06.2012 02:00 12,9 C 21,9 C 14,3 C 13,1 C 13,1 C 0,2 C 90 % 95 % 0 % 1010,6 hPa 0,0 l/m 5,5 km/h (1 Bft) SW 225 0 min 0,0 UV-I 11,3 C 13,1 C 7,7 km/h (2 Bft)
01.06.2012 02:12 12,9 C 21,8 C 14,3 C 13,0 C 13,0 C 0,1 C 90 % 95 % 0 % 1010,9 hPa 0,0 l/m 6,6 km/h (2 Bft) N 0 0 min 0,0 UV-I 11,3 C 13,0 C 10,3 km/h (2 Bft)
01.06.2012 02:25 12,9 C 21,7 C 14,2 C 13,1 C 13,1 C 0,2 C 90 % 95 % 0 % 1010,9 hPa 0,0 l/m 6,9 km/h (2 Bft) W 270 0 min 0,0 UV-I 11,3 C 13,1 C 8,9 km/h (2 Bft)
01.06.2012 02:30 12,9 C 21,7 C 14,1 C 13,1 C 13,1 C 0,2 C 90 % 95 % 0 % 1010,9 hPa 0,0 l/m 6,8 km/h (2 Bft) W-SW 247 0 min 0,0 UV-I 11,3 C 13,1 C 6,8 km/h (2 Bft)
01.06.2012 02:35 12,9 C 21,7 C 14,2 C 13,1 C 13,1 C 0,2 C 90 % 95 % 0 % 1010,9 hPa 0,0 l/m 6,4 km/h (2 Bft) W-SW 247 0 min 0,0 UV-I 11,3 C 13,1 C 9,8 km/h (2 Bft)
01.06.2012 02:40 12,9 C 21,7 C 14,2 C 13,3 C 13,3 C 0,4 C 90 % 95 % 0 % 1010,9 hPa 0,0 l/m 6,3 km/h (2 Bft) S 180 0 min 0,0 UV-I 11,3 C 13,3 C 6,9 km/h (2 Bft)
01.06.2012 02:45 12,9 C 21,6 C 14,1 C 13,2 C 13,2 C 0,3 C 90 % 95 % 0 % 1010,8 hPa 0,0 l/m 6,6 km/h (2 Bft) S 180 0 min 0,0 UV-I 11,3 C 13,2 C 8,9 km/h (2 Bft)
01.06.2012 02:50 12,9 C 21,6 C 14,1 C 13,1 C 13,1 C 0,2 C 89 % 95 % 0 % 1010,8 hPa 0,0 l/m 7,1 km/h (2 Bft) SW 225 0 min 0,0 UV-I 11,1 C 13,1 C 11,4 km/h (2 Bft)
01.06.2012 02:55 12,9 C 21,6 C 14,1 C 13,1 C 13,1 C 0,2 C 89 % 95 % 0 % 1010,8 hPa 0,0 l/m 6,6 km/h (2 Bft) SW 225 0 min 0,0 UV-I 11,1 C 13,1 C 6,1 km/h (2 Bft)
01.06.2012 03:00 12,9 C 21,6 C 14,1 C 13,1 C 13,1 C 0,2 C 89 % 95 % 0 % 1010,8 hPa 0,0 l/m 6,8 km/h (2 Bft) W 270 0 min 0,0 UV-I 11,1 C 13,1 C 7,2 km/h (2 Bft)
01.06.2012 03:15 12,9 C 21,4 C 13,9 C 13,1 C 12,7 C 0,2 C 88 % 95 % 0 % 1010,8 hPa 0,0 l/m 10,1 km/h (2 Bft) W-SW 247 0 min 0,0 UV-I 11,0 C 12,7 C 10,1 km/h (2 Bft)
01.06.2012 03:16 12,9 C 21,4 C 13,9 C 12,8 C 12,7 C 0,0 C 88 % 95 % 0 % 1010,8 hPa 0,0 l/m 10,1 km/h (2 Bft) W-SW 247 0 min 0,0 UV-I 11,0 C 12,7 C 10,1 km/h (2 Bft)
01.06.2012 03:19 12,9 C 21,4 C 13,9 C 11,5 C 12,7 C 0,0 C 88 % 95 % 0 % 1010,8 hPa 0,0 l/m 10,1 km/h (2 Bft) W-SW 247 0 min 0,0 UV-I 11,0 C 12,7 C 10,1 km/h (2 Bft)
01.06.2012 03:30 12,8 C 21,4 C 14,0 C 13,0 C 12,9 C 0,2 C 88 % 95 % 0 % 1010,7 hPa 0,0 l/m 7,7 km/h (2 Bft) W 270 0 min 0,0 UV-I 10,9 C 12,9 C 4,7 km/h (1 Bft)
01.06.2012 03:31 12,8 C 21,4 C 14,0 C 13,0 C 13,0 C 0,2 C 88 % 95 % 0 % 1010,7 hPa 0,0 l/m 7,1 km/h (2 Bft) W 270 0 min 0,0 UV-I 10,9 C 13,0 C 9,2 km/h (2 Bft)
01.06.2012 03:32 12,8 C 21,4 C 14,0 C 13,0 C 13,0 C 0,2 C 88 % 95 % 0 % 1010,7 hPa 0,0 l/m 7,1 km/h (2 Bft) W 270 0 min 0,0 UV-I 10,9 C 13,0 C 9,2 km/h (2 Bft)
01.06.2012 03:33 12,8 C 21,4 C 14,0 C 13,0 C 13,0 C 0,2 C 88 % 95 % 0 % 1010,7 hPa 0,0 l/m 7,1 km/h (2 Bft) W 270 0 min 0,0 UV-I 10,9 C 13,0 C 9,2 km/h (2 Bft)
01.06.2012 03:34 12,8 C 21,4 C 14,0 C 13,0 C 13,0 C 0,2 C 88 % 95 % 0 % 1010,7 hPa 0,0 l/m 7,1 km/h (2 Bft) W 270 0 min 0,0 UV-I 10,9 C 13,0 C 9,2 km/h (2 Bft)
01.06.2012 03:37 12,8 C 21,4 C 13,9 C 13,0 C 13,0 C 0,2 C 88 % 95 % 0 % 1010,7 hPa 0,0 l/m 7,1 km/h (2 Bft) SW 225 0 min 0,0 UV-I 10,9 C 13,0 C 15,0 km/h (3 Bft)
01.06.2012 03:40 12,8 C 21,4 C 13,9 C 13,0 C 13,0 C 0,2 C 88 % 95 % 0 % 1010,7 hPa 0,0 l/m 7,1 km/h (2 Bft) SW 225 0 min 0,0 UV-I 10,9 C 13,0 C 15,0 km/h (3 Bft)
01.06.2012 03:45 12,9 C 21,3 C 13,9 C 13,1 C 12,8 C 0,2 C 87 % 95 % 0 % 1010,7 hPa 0,0 l/m 9,0 km/h (2 Bft) W-SW 247 0 min 0,0 UV-I 10,8 C 12,8 C 17,4 km/h (3 Bft)
01.06.2012 03:50 12,9 C 21,3 C 13,9 C 12,9 C 12,8 C 0,0 C 87 % 95 % 0 % 1010,7 hPa 0,0 l/m 8,5 km/h (2 Bft) SW 225 0 min 0,0 UV-I 10,8 C 12,8 C 12,7 km/h (3 Bft)
01.06.2012 03:55 12,9 C 21,3 C 13,9 C 12,9 C 12,7 C 0,0 C 87 % 95 % 0 % 1010,7 hPa 0,0 l/m 8,7 km/h (2 Bft) W 270 0 min 0,0 UV-I 10,8 C 12,7 C 10,1 km/h (2 Bft)
01.06.2012 04:02 12,8 C 21,3 C 13,9 C 12,9 C 12,9 C 0,1 C 87 % 95 % 0 % 1010,8 hPa 0,0 l/m 7,4 km/h (2 Bft) W-SW 247 0 min 0,0 UV-I 10,7 C 12,9 C 9,8 km/h (2 Bft)
01.06.2012 04:03 12,8 C 21,3 C 13,9 C 12,9 C 12,9 C 0,1 C 87 % 95 % 0 % 1010,8 hPa 0,0 l/m 7,4 km/h (2 Bft) N 0 0 min 0,0 UV-I 10,7 C 12,9 C 9,8 km/h (2 Bft)
01.06.2012 04:18 12,8 C 21,2 C 13,9 C 12,9 C 12,7 C 0,1 C 87 % 95 % 0 % 1010,8 hPa 0,0 l/m 8,4 km/h (2 Bft) S-SW 202 0 min 0,0 UV-I 10,7 C 12,7 C 15,6 km/h (3 Bft)
01.06.2012 04:19 12,8 C 21,2 C 13,9 C 12,8 C 12,7 C 0,0 C 87 % 95 % 0 % 1010,8 hPa 0,0 l/m 8,4 km/h (2 Bft) S-SW 202 0 min 0,0 UV-I 10,7 C 12,7 C 15,6 km/h (3 Bft)
01.06.2012 04:25 12,8 C 21,2 C 13,9 C 12,8 C 12,6 C 0,0 C 86 % 95 % 0 % 1010,9 hPa 0,0 l/m 9,0 km/h (2 Bft) SW 225 0 min 0,0 UV-I 10,5 C 12,6 C 18,2 km/h (3 Bft)
01.06.2012 04:30 12,8 C 21,2 C 13,9 C 12,8 C 12,7 C 0,0 C 86 % 95 % 0 % 1010,9 hPa 0,0 l/m 8,7 km/h (2 Bft) W-SW 247 0 min 0,0 UV-I 10,5 C 12,7 C 10,5 km/h (2 Bft)
01.06.2012 04:35 12,8 C 21,2 C 13,9 C 12,8 C 12,6 C 0,0 C 86 % 95 % 0 % 1010,9 hPa 0,0 l/m 8,7 km/h (2 Bft) W 270 0 min 0,0 UV-I 10,5 C 12,6 C 13,0 km/h (3 Bft)
01.06.2012 04:40 12,9 C 21,1 C 13,8 C 12,8 C 12,5 C 0,0 C 86 % 95 % 0 % 1010,9 hPa 0,0 l/m 9,0 km/h (2 Bft) O-NO 67 0 min 0,0 UV-I 10,6 C 12,5 C 7,6 km/h (2 Bft)
01.06.2012 04:45 12,9 C 21,1 C 13,7 C 12,8 C 12,4 C 0,0 C 86 % 95 % 0 % 1011,1 hPa 0,0 l/m 9,3 km/h (2 Bft) SO 135 0 min 0,0 UV-I 10,6 C 12,4 C 14,5 km/h (3 Bft)
01.06.2012 04:50 12,9 C 21,1 C 13,7 C 12,7 C 12,4 C 0,0 C 85 % 95 % 0 % 1011,1 hPa 0,0 l/m 9,7 km/h (2 Bft) SW 225 0 min 0,0 UV-I 10,4 C 12,4 C 11,9 km/h (2 Bft)
01.06.2012 04:55 12,8 C 21,1 C 13,7 C 12,7 C 12,4 C 0,0 C 85 % 95 % 0 % 1011,1 hPa 0,0 l/m 9,3 km/h (2 Bft) S 180 0 min 0,0 UV-I 10,3 C 12,4 C 12,9 km/h (3 Bft)
01.06.2012 05:00 12,8 C 21,1 C 13,7 C 12,7 C 12,4 C 0,0 C 86 % 95 % 0 % 1011,1 hPa 0,0 l/m 8,7 km/h (2 Bft) S 180 0 min 0,0 UV-I 10,5 C 12,4 C 12,1 km/h (2 Bft)
01.06.2012 05:11 12,7 C 21,1 C 13,7 C 12,6 C 12,4 C 0,0 C 86 % 95 % 0 % 1010,8 hPa 0,0 l/m 8,9 km/h (2 Bft) N 0 0 min 0,0 UV-I 10,4 C 12,4 C 9,2 km/h (2 Bft)
01.06.2012 05:20 12,7 C 21,1 C 13,7 C 12,6 C 12,4 C 0,0 C 86 % 95 % 0 % 1010,8 hPa 0,0 l/m 7,9 km/h (2 Bft) S-SW 202 0 min 0,0 UV-I 10,4 C 12,4 C 6,8 km/h (2 Bft)
01.06.2012 05:25 12,7 C 21,0 C 13,6 C 12,6 C 12,3 C 0,0 C 86 % 95 % 0 % 1011,4 hPa 0,0 l/m 8,2 km/h (2 Bft) W-SW 247 0 min 0,0 UV-I 10,4 C 12,3 C 14,0 km/h (3 Bft)
01.06.2012 05:30 12,7 C 21,0 C 13,7 C 12,6 C 12,2 C 0,0 C 86 % 95 % 0 % 1011,4 hPa 0,0 l/m 9,3 km/h (2 Bft) S 180 0 min 0,0 UV-I 10,4 C 12,2 C 9,8 km/h (2 Bft)
01.06.2012 05:35 12,7 C 21,0 C 13,7 C 12,6 C 12,3 C 0,0 C 86 % 95 % 0 % 1011,4 hPa 0,0 l/m 8,5 km/h (2 Bft) NW 315 0 min 0,0 UV-I 10,4 C 12,3 C 8,9 km/h (2 Bft)
01.06.2012 05:40 12,7 C 21,0 C 13,6 C 12,6 C 12,2 C 0,0 C 86 % 95 % 0 % 1011,4 hPa 0,0 l/m 8,4 km/h (2 Bft) SW 225 0 min 0,0 UV-I 10,4 C 12,2 C 16,1 km/h (3 Bft)
01.06.2012 05:45 12,5 C 21,0 C 13,6 C 12,5 C 12,1 C 0,0 C 86 % 95 % 0 % 1011,6 hPa 0,0 l/m 8,9 km/h (2 Bft) N 360 0 min 0,0 UV-I 10,2 C 12,1 C 10,1 km/h (2 Bft)
01.06.2012 05:50 12,5 C 21,0 C 13,5 C 12,4 C 12,0 C 0,0 C 86 % 95 % 0 % 1011,6 hPa 0,0 l/m 8,5 km/h (2 Bft) W 270 0 min 0,0 UV-I 10,2 C 12,0 C 7,4 km/h (2 Bft)
01.06.2012 05:55 12,4 C 21,0 C 13,5 C 12,3 C 11,8 C 0,0 C 87 % 95 % 0 % 1011,6 hPa 0,0 l/m 8,2 km/h (2 Bft) SW 225 0 min 0,0 UV-I 10,3 C 11,8 C 10,6 km/h (2 Bft)
01.06.2012 06:00 12,3 C 21,0 C 13,5 C 12,1 C 11,4 C 0,0 C 87 % 95 % 0 % 1011,6 hPa 0,0 l/m 8,9 km/h (2 Bft) W-SW 247 0 min 0,0 UV-I 10,2 C 11,4 C 13,8 km/h (3 Bft)
01.06.2012 06:11 12,0 C 21,0 C 13,2 C 11,9 C 11,6 C 0,0 C 88 % 95 % 0 % 1011,9 hPa 0,0 l/m 7,4 km/h (2 Bft) N 0 0 min 0,0 UV-I 10,1 C 11,6 C 9,0 km/h (2 Bft)
01.06.2012 06:20 12,1 C 21,0 C 13,2 C 11,9 C 11,6 C 0,0 C 88 % 95 % 0 % 1011,9 hPa 0,0 l/m 7,6 km/h (2 Bft) W 270 0 min 0,0 UV-I 10,2 C 11,6 C 6,4 km/h (2 Bft)
01.06.2012 06:25 12,0 C 21,0 C 13,1 C 11,8 C 11,4 C 0,0 C 89 % 95 % 0 % 1012,1 hPa 0,0 l/m 7,6 km/h (2 Bft) W-SW 247 0 min 0,0 UV-I 10,2 C 11,4 C 13,7 km/h (3 Bft)
01.06.2012 06:30 11,9 C 21,0 C 13,1 C 11,7 C 11,4 C 0,0 C 89 % 95 % 0 % 1012,1 hPa 0,0 l/m 7,6 km/h (2 Bft) W-SW 247 0 min 0,0 UV-I 10,1 C 11,4 C 16,7 km/h (3 Bft)
01.06.2012 06:35 11,9 C 21,1 C 13,1 C 11,7 C 11,3 C 0,0 C 89 % 95 % 0 % 1012,1 hPa 0,0 l/m 7,4 km/h (2 Bft) S-SW 202 0 min 0,0 UV-I 10,1 C 11,3 C 9,0 km/h (2 Bft)
01.06.2012 06:40 11,9 C 21,1 C 13,0 C 11,8 C 11,2 C 0,0 C 89 % 95 % 0 % 1012,1 hPa 0,7 l/m 8,0 km/h (2 Bft) W 270 0 min 0,0 UV-I 10,1 C 11,2 C 10,9 km/h (2 Bft)
01.06.2012 06:45 11,9 C 20,9 C 13,1 C 11,7 C 11,2 C 0,0 C 90 % 95 % 0 % 1012,2 hPa 0,0 l/m 7,4 km/h (2 Bft) SW 225 0 min 0,0 UV-I 10,3 C 11,2 C 6,0 km/h (2 Bft)
01.06.2012 06:50 11,7 C 20,8 C 13,0 C 11,5 C 11,2 C 0,0 C 90 % 95 % 0 % 1012,2 hPa 0,0 l/m 7,4 km/h (2 Bft) W-SW 247 0 min 0,0 UV-I 10,1 C 11,2 C 10,1 km/h (2 Bft)
01.06.2012 06:55 11,7 C 20,8 C 12,9 C 11,6 C 11,1 C 0,0 C 90 % 95 % 0 % 1012,2 hPa 0,7 l/m 8,0 km/h (2 Bft) S-SW 202 0 min 0,0 UV-I 10,1 C 11,1 C 7,6 km/h (2 Bft)
01.06.2012 07:00 11,7 C 20,8 C 12,9 C 11,6 C 11,0 C 0,0 C 90 % 95 % 0 % 1012,2 hPa 0,0 l/m 8,4 km/h (2 Bft) SW 225 0 min 0,0 UV-I 10,1 C 11,0 C 10,5 km/h (2 Bft)
01.06.2012 07:05 11,7 C 20,8 C 13,0 C 11,6 C 11,4 C 0,0 C 90 % 95 % 0 % 1012,4 hPa 0,0 l/m 6,9 km/h (2 Bft) SW 225 0 min 0,0 UV-I 10,1 C 11,4 C 4,8 km/h (1 Bft)
01.06.2012 07:10 11,7 C 20,8 C 13,1 C 11,7 C 11,7 C 0,0 C 90 % 95 % 0 % 1012,4 hPa 0,0 l/m 5,6 km/h (1 Bft) W-SW 247 0 min 0,0 UV-I 10,1 C 11,7 C 6,3 km/h (2 Bft)
01.06.2012 07:15 11,6 C 20,9 C 12,9 C 11,9 C 11,9 C 0,3 C 90 % 95 % 8 % 1012,4 hPa 0,0 l/m 4,8 km/h (1 Bft) SW 225 0 min 0,0 UV-I 10,0 C 11,9 C 6,4 km/h (2 Bft)
01.06.2012 07:20 11,6 C 20,9 C 13,0 C 11,7 C 11,7 C 0,1 C 90 % 95 % 3 % 1012,4 hPa 0,0 l/m 5,1 km/h (1 Bft) SO 135 0 min 0,0 UV-I 10,0 C 11,7 C 4,0 km/h (1 Bft)
01.06.2012 07:25 11,6 C 20,9 C 13,1 C 11,8 C 11,8 C 0,2 C 90 % 95 % 5 % 1012,8 hPa 0,7 l/m 4,3 km/h (1 Bft) S 180 0 min 0,0 UV-I 10,0 C 11,8 C 4,2 km/h (1 Bft)
01.06.2012 07:30 11,5 C 20,9 C 13,1 C 11,8 C 11,8 C 0,3 C 90 % 95 % 8 % 1012,8 hPa 0,7 l/m 4,0 km/h (1 Bft) SW 225 0 min 0,0 UV-I 9,9 C 11,8 C 4,2 km/h (1 Bft)
01.06.2012 07:35 11,5 C 21,0 C 13,0 C 11,8 C 11,8 C 0,3 C 90 % 95 % 8 % 1012,8 hPa 0,0 l/m 3,5 km/h (1 Bft) W-SW 247 0 min 0,0 UV-I 9,9 C 11,8 C 3,7 km/h (1 Bft)
01.06.2012 07:40 11,4 C 21,1 C 13,1 C 11,7 C 11,7 C 0,3 C 90 % 95 % 8 % 1012,8 hPa 0,0 l/m 3,4 km/h (1 Bft) SW 225 0 min 0,0 UV-I 9,8 C 11,7 C 5,6 km/h (1 Bft)
01.06.2012 07:45 11,5 C 21,0 C 13,1 C 11,7 C 11,7 C 0,2 C 90 % 95 % 5 % 1012,9 hPa 0,0 l/m 3,7 km/h (1 Bft) W 270 0 min 0,0 UV-I 9,9 C 11,7 C 6,3 km/h (2 Bft)
01.06.2012 07:50 11,5 C 21,0 C 13,1 C 11,7 C 11,7 C 0,2 C 91 % 95 % 5 % 1012,9 hPa 0,0 l/m 3,9 km/h (1 Bft) NW 315 0 min 0,0 UV-I 10,1 C 11,7 C 5,8 km/h (2 Bft)
01.06.2012 07:55 11,5 C 21,0 C 13,0 C 11,7 C 11,7 C 0,2 C 91 % 95 % 5 % 1012,9 hPa 0,0 l/m 4,0 km/h (1 Bft) S 180 0 min 0,0 UV-I 10,1 C 11,7 C 7,4 km/h (2 Bft)
01.06.2012 08:00 11,5 C 21,0 C 13,0 C 11,7 C 11,7 C 0,2 C 91 % 95 % 5 % 1012,9 hPa 0,0 l/m 3,7 km/h (1 Bft) S 180 0 min 0,0 UV-I 10,1 C 11,7 C 3,7 km/h (1 Bft)
01.06.2012 08:11 11,7 C 20,9 C 13,0 C 11,7 C 11,6 C 0,0 C 91 % 95 % 0 % 1013,0 hPa 0,7 l/m 6,6 km/h (2 Bft) N 0 0 min 0,0 UV-I 10,3 C 11,6 C 5,6 km/h (1 Bft)
01.06.2012 08:20 11,6 C 20,8 C 13,1 C 11,9 C 11,9 C 0,3 C 91 % 95 % 8 % 1013,0 hPa 0,0 l/m 5,8 km/h (2 Bft) O-NO 67 0 min 0,0 UV-I 10,2 C 11,9 C 3,4 km/h (1 Bft)
01.06.2012 08:25 11,7 C 20,8 C 13,1 C 11,9 C 11,9 C 0,2 C 91 % 95 % 5 % 1012,9 hPa 0,0 l/m 6,8 km/h (2 Bft) S-SO 157 0 min 0,0 UV-I 10,3 C 11,9 C 8,4 km/h (2 Bft)
01.06.2012 08:30 11,7 C 20,9 C 13,0 C 11,8 C 11,8 C 0,1 C 91 % 95 % 3 % 1012,9 hPa 0,0 l/m 7,1 km/h (2 Bft) S-SW 202 0 min 0,0 UV-I 10,3 C 11,8 C 7,9 km/h (2 Bft)
01.06.2012 08:35 11,9 C 20,8 C 13,1 C 12,0 C 12,0 C 0,1 C 91 % 95 % 3 % 1012,9 hPa 0,0 l/m 6,9 km/h (2 Bft) W-SW 247 0 min 0,0 UV-I 10,5 C 12,0 C 7,6 km/h (2 Bft)
01.06.2012 08:40 11,9 C 20,8 C 13,0 C 11,9 C 11,9 C 0,0 C 91 % 95 % 0 % 1012,9 hPa 0,0 l/m 7,2 km/h (2 Bft) W 270 0 min 0,0 UV-I 10,5 C 11,9 C 8,7 km/h (2 Bft)
01.06.2012 08:45 11,9 C 20,7 C 13,1 C 12,0 C 11,7 C 0,1 C 91 % 95 % 3 % 1013,3 hPa 0,0 l/m 7,9 km/h (2 Bft) S-SW 202 0 min 0,0 UV-I 10,5 C 11,7 C 11,6 km/h (2 Bft)
01.06.2012 08:50 11,8 C 20,7 C 12,9 C 11,9 C 11,6 C 0,1 C 91 % 95 % 3 % 1013,3 hPa 0,0 l/m 8,5 km/h (2 Bft) SW 225 0 min 0,0 UV-I 10,4 C 11,6 C 12,9 km/h (3 Bft)
01.06.2012 08:55 11,8 C 20,7 C 12,9 C 11,7 C 11,6 C 0,0 C 91 % 95 % 0 % 1013,3 hPa 0,0 l/m 8,2 km/h (2 Bft) W-SW 247 0 min 0,0 UV-I 10,4 C 11,6 C 14,6 km/h (3 Bft)
01.06.2012 09:00 11,8 C 20,7 C 12,9 C 11,8 C 11,7 C 0,0 C 91 % 95 % 0 % 1013,3 hPa 0,0 l/m 7,7 km/h (2 Bft) SW 225 0 min 0,0 UV-I 10,4 C 11,7 C 8,4 km/h (2 Bft)
01.06.2012 09:03 11,6 C 20,7 C 12,9 C 11,9 C 11,9 C 0,3 C 90 % 95 % 8 % 1013,8 hPa 0,7 l/m 3,4 km/h (1 Bft) O-SO 112 0 min 0,0 UV-I 10,0 C 11,9 C 8,5 km/h (2 Bft)
01.06.2012 09:08 11,4 C 20,9 C 12,8 C 11,6 C 11,6 C 0,2 C 90 % 95 % 5 % 1013,8 hPa 1,4 l/m 3,4 km/h (1 Bft) SW 225 0 min 0,0 UV-I 9,8 C 11,6 C 0,0 km/h (0 Bft)
01.06.2012 09:13 11,3 C 20,9 C 12,9 C 11,5 C 11,5 C 0,2 C 89 % 95 % 5 % 1013,8 hPa 0,7 l/m 3,4 km/h (1 Bft) SW 225 0 min 0,0 UV-I 9,6 C 11,5 C 3,2 km/h (1 Bft)
01.06.2012 09:21 11,3 C 20,8 C 12,9 C 11,6 C 11,6 C 0,3 C 90 % 95 % 8 % 1013,9 hPa 0,0 l/m 3,7 km/h (1 Bft) S 180 0 min 0,0 UV-I 9,7 C 11,6 C 2,1 km/h (1 Bft)
01.06.2012 09:30 11,3 C 20,8 C 12,9 C 11,8 C 11,8 C 0,5 C 90 % 95 % 13 % 1013,9 hPa 0,7 l/m 3,4 km/h (1 Bft) W-SW 247 0 min 0,0 UV-I 9,7 C 11,8 C 3,2 km/h (1 Bft)
01.06.2012 09:35 11,4 C 20,8 C 12,9 C 11,8 C 11,8 C 0,4 C 91 % 95 % 11 % 1013,9 hPa 0,0 l/m 3,5 km/h (1 Bft) W-SW 247 0 min 0,0 UV-I 10,0 C 11,8 C 6,8 km/h (2 Bft)
01.06.2012 09:40 11,3 C 20,8 C 12,9 C 11,9 C 11,9 C 0,6 C 90 % 95 % 16 % 1013,9 hPa 0,0 l/m 4,2 km/h (1 Bft) SW 225 0 min 0,0 UV-I 9,7 C 11,9 C 9,2 km/h (2 Bft)
01.06.2012 09:45 11,4 C 20,8 C 12,9 C 11,9 C 11,9 C 0,5 C 91 % 95 % 13 % 1013,8 hPa 0,0 l/m 4,5 km/h (1 Bft) S 180 0 min 0,0 UV-I 10,0 C 11,9 C 3,9 km/h (1 Bft)
01.06.2012 09:50 11,3 C 20,8 C 12,9 C 12,0 C 12,0 C 0,7 C 91 % 95 % 18 % 1013,8 hPa 0,0 l/m 4,5 km/h (1 Bft) W-SW 247 0 min 0,0 UV-I 9,9 C 12,0 C 7,4 km/h (2 Bft)
01.06.2012 09:55 11,4 C 20,8 C 13,0 C 12,3 C 12,3 C 0,9 C 91 % 95 % 24 % 1013,8 hPa 0,0 l/m 3,9 km/h (1 Bft) SW 225 0 min 0,0 UV-I 10,0 C 12,3 C 6,0 km/h (2 Bft)
01.06.2012 10:00 11,5 C 20,8 C 12,9 C 12,4 C 12,4 C 0,9 C 91 % 95 % 24 % 1013,8 hPa 0,0 l/m 4,2 km/h (1 Bft) W-SW 247 0 min 0,0 UV-I 10,1 C 12,4 C 5,3 km/h (1 Bft)
01.06.2012 10:11 11,6 C 20,6 C 13,1 C 12,7 C 12,7 C 1,1 C 91 % 95 % 29 % 1013,9 hPa 0,0 l/m 3,9 km/h (1 Bft) N 0 0 min 0,0 UV-I 10,2 C 12,7 C 2,1 km/h (1 Bft)
01.06.2012 10:20 11,7 C 20,6 C 13,1 C 12,6 C 12,6 C 0,9 C 91 % 95 % 24 % 1013,9 hPa 0,0 l/m 3,4 km/h (1 Bft) S-SW 202 0 min 0,0 UV-I 10,3 C 12,6 C 5,3 km/h (1 Bft)
01.06.2012 10:25 11,7 C 20,6 C 12,9 C 12,4 C 12,4 C 0,7 C 91 % 95 % 18 % 1015,1 hPa 0,7 l/m 3,9 km/h (1 Bft) W-SW 247 0 min 0,0 UV-I 10,3 C 12,4 C 3,5 km/h (1 Bft)
01.06.2012 10:30 11,9 C 20,6 C 13,1 C 12,8 C 12,8 C 0,9 C 91 % 95 % 24 % 1015,1 hPa 0,0 l/m 4,5 km/h (1 Bft) SW 225 0 min 0,0 UV-I 10,5 C 12,8 C 5,0 km/h (1 Bft)
01.06.2012 10:35 11,9 C 20,6 C 13,0 C 13,0 C 13,0 C 1,1 C 91 % 95 % 29 % 1015,1 hPa 0,0 l/m 5,0 km/h (1 Bft) S-SW 202 0 min 0,0 UV-I 10,5 C 13,0 C 10,1 km/h (2 Bft)
01.06.2012 10:40 12,0 C 20,6 C 13,1 C 13,1 C 13,1 C 1,1 C 91 % 95 % 29 % 1015,1 hPa 0,0 l/m 5,8 km/h (2 Bft) SW 225 0 min 0,0 UV-I 10,6 C 13,1 C 6,1 km/h (2 Bft)
01.06.2012 10:45 12,0 C 20,6 C 13,1 C 13,2 C 13,2 C 1,2 C 91 % 95 % 32 % 1014,3 hPa 0,0 l/m 6,3 km/h (2 Bft) SW 225 0 min 0,0 UV-I 10,6 C 13,2 C 5,5 km/h (1 Bft)
01.06.2012 10:50 12,1 C 20,5 C 13,1 C 13,1 C 13,1 C 1,0 C 91 % 95 % 26 % 1014,3 hPa 0,0 l/m 6,0 km/h (2 Bft) SW 225 0 min 0,0 UV-I 10,7 C 13,1 C 2,7 km/h (1 Bft)
01.06.2012 10:55 11,9 C 20,5 C 13,0 C 12,9 C 12,9 C 1,0 C 90 % 95 % 26 % 1014,3 hPa 0,0 l/m 4,5 km/h (1 Bft) W-SW 247 0 min 0,0 UV-I 10,3 C 12,9 C 5,8 km/h (2 Bft)
01.06.2012 11:00 11,8 C 20,5 C 13,0 C 12,9 C 12,9 C 1,1 C 90 % 95 % 29 % 1014,3 hPa 0,0 l/m 2,4 km/h (1 Bft) W-NW 292 0 min 0,0 UV-I 10,2 C 12,9 C 3,9 km/h (1 Bft)
01.06.2012 11:11 12,0 C 20,5 C 13,2 C 13,7 C 13,7 C 1,7 C 91 % 96 % 45 % 1014,8 hPa 0,0 l/m 1,9 km/h (1 Bft) N 0 0 min 0,0 UV-I 10,6 C 13,7 C 2,1 km/h (1 Bft)
01.06.2012 11:20 12,1 C 20,5 C 13,2 C 13,7 C 13,7 C 1,6 C 91 % 96 % 42 % 1014,8 hPa 0,0 l/m 1,4 km/h (1 Bft) W-SW 247 0 min 0,0 UV-I 10,7 C 13,7 C 0,0 km/h (0 Bft)
01.06.2012 11:25 12,0 C 20,4 C 13,3 C 13,6 C 13,6 C 1,6 C 90 % 96 % 42 % 1014,4 hPa 0,0 l/m 2,1 km/h (1 Bft) SW 225 0 min 0,0 UV-I 10,4 C 13,6 C 5,1 km/h (1 Bft)
01.06.2012 11:30 12,0 C 20,4 C 13,3 C 13,5 C 13,5 C 1,5 C 90 % 96 % 39 % 1014,4 hPa 0,0 l/m 2,7 km/h (1 Bft) S 180 0 min 0,0 UV-I 10,4 C 13,5 C 4,2 km/h (1 Bft)
01.06.2012 11:35 12,2 C 20,4 C 13,2 C 13,6 C 13,6 C 1,4 C 91 % 96 % 37 % 1014,4 hPa 0,0 l/m 1,9 km/h (1 Bft) S 180 0 min 0,0 UV-I 10,8 C 13,6 C 2,6 km/h (1 Bft)
01.06.2012 11:40 12,3 C 20,4 C 13,5 C 13,5 C 13,5 C 1,2 C 91 % 96 % 32 % 1014,4 hPa 0,0 l/m 1,3 km/h (1 Bft) W 270 0 min 0,0 UV-I 10,9 C 13,5 C 3,1 km/h (1 Bft)
01.06.2012 11:45 12,4 C 20,4 C 13,4 C 13,7 C 13,7 C 1,3 C 91 % 96 % 34 % 1014,9 hPa 0,0 l/m 1,4 km/h (1 Bft) W-SW 247 0 min 0,0 UV-I 11,0 C 13,7 C 4,2 km/h (1 Bft)
01.06.2012 11:50 12,4 C 20,4 C 13,5 C 13,7 C 13,7 C 1,3 C 91 % 96 % 34 % 1014,9 hPa 0,0 l/m 2,4 km/h (1 Bft) W-SW 247 0 min 0,0 UV-I 11,0 C 13,7 C 4,5 km/h (1 Bft)
01.06.2012 11:55 12,5 C 20,4 C 13,5 C 13,6 C 13,6 C 1,1 C 90 % 96 % 29 % 1014,9 hPa 0,0 l/m 3,4 km/h (1 Bft) S 180 0 min 0,0 UV-I 10,9 C 13,6 C 4,5 km/h (1 Bft)
01.06.2012 12:00 12,4 C 20,4 C 13,5 C 13,5 C 13,5 C 1,1 C 90 % 96 % 29 % 1014,9 hPa 0,7 l/m 2,7 km/h (1 Bft) SW 225 0 min 0,0 UV-I 10,8 C 13,5 C 3,4 km/h (1 Bft)
01.06.2012 12:11 12,3 C 20,5 C 13,5 C 12,9 C 12,9 C 0,6 C 90 % 96 % 16 % 1014,9 hPa 2,1 l/m 1,3 km/h (1 Bft) N 0 0 min 0,0 UV-I 10,7 C 12,9 C 3,9 km/h (1 Bft)
01.06.2012 12:20 12,3 C 20,5 C 13,5 C 12,8 C 12,8 C 0,5 C 90 % 96 % 13 % 1014,9 hPa 0,7 l/m 2,1 km/h (1 Bft) S-SW 202 0 min 0,0 UV-I 10,7 C 12,8 C 6,6 km/h (2 Bft)
01.06.2012 12:25 12,3 C 20,4 C 13,4 C 13,1 C 13,1 C 0,8 C 90 % 96 % 21 % 1014,7 hPa 0,7 l/m 4,0 km/h (1 Bft) W-SW 247 0 min 0,0 UV-I 10,7 C 13,1 C 4,7 km/h (1 Bft)
01.06.2012 12:30 12,5 C 20,4 C 13,5 C 13,6 C 13,6 C 1,1 C 90 % 96 % 29 % 1014,7 hPa 0,0 l/m 5,1 km/h (1 Bft) W-SW 247 0 min 0,0 UV-I 10,9 C 13,6 C 11,1 km/h (2 Bft)
01.06.2012 12:35 12,7 C 20,4 C 13,4 C 14,7 C 14,7 C 2,0 C 91 % 96 % 53 % 1014,7 hPa 0,0 l/m 6,4 km/h (2 Bft) W-SW 247 0 min 0,0 UV-I 11,3 C 14,7 C 13,7 km/h (3 Bft)
01.06.2012 12:40 12,7 C 20,4 C 13,4 C 15,0 C 15,0 C 2,3 C 91 % 96 % 61 % 1014,7 hPa 0,0 l/m 7,1 km/h (2 Bft) SW 225 0 min 0,0 UV-I 11,3 C 15,0 C 11,4 km/h (2 Bft)
01.06.2012 12:45 13,1 C 20,4 C 13,6 C 15,9 C 15,9 C 2,8 C 91 % 96 % 74 % 1014,6 hPa 0,0 l/m 7,6 km/h (2 Bft) W-SW 247 0 min 0,0 UV-I 11,7 C 15,9 C 10,8 km/h (2 Bft)
01.06.2012 12:50 13,3 C 20,4 C 13,7 C 16,4 C 16,4 C 3,1 C 91 % 96 % 82 % 1014,6 hPa 0,0 l/m 7,2 km/h (2 Bft) S 180 0 min 0,0 UV-I 11,9 C 16,4 C 7,1 km/h (2 Bft)
01.06.2012 12:55 13,2 C 20,3 C 13,6 C 16,2 C 16,2 C 3,0 C 90 % 96 % 79 % 1014,6 hPa 0,0 l/m 7,9 km/h (2 Bft) W-NW 292 0 min 0,0 UV-I 11,6 C 16,2 C 18,3 km/h (3 Bft)
01.06.2012 13:00 13,0 C 20,4 C 13,3 C 15,4 C 14,8 C 2,4 C 88 % 96 % 63 % 1014,6 hPa 0,0 l/m 9,0 km/h (2 Bft) S-SO 157 0 min 0,0 UV-I 11,1 C 14,8 C 9,0 km/h (2 Bft)
01.06.2012 13:11 11,9 C 20,4 C 13,0 C 12,1 C 12,1 C 0,2 C 88 % 95 % 5 % 1015,2 hPa 2,1 l/m 2,7 km/h (1 Bft) N 0 0 min 0,0 UV-I 10,0 C 12,1 C 2,6 km/h (1 Bft)
01.06.2012 13:20 11,7 C 20,5 C 12,9 C 11,9 C 11,9 C 0,2 C 88 % 95 % 5 % 1015,2 hPa 0,0 l/m 3,4 km/h (1 Bft) SO 135 0 min 0,0 UV-I 9,8 C 11,9 C 3,2 km/h (1 Bft)
01.06.2012 13:25 11,6 C 20,5 C 12,9 C 11,8 C 11,8 C 0,2 C 89 % 95 % 5 % 1015,2 hPa 0,7 l/m 4,0 km/h (1 Bft) S 180 0 min 0,0 UV-I 9,8 C 11,8 C 6,1 km/h (2 Bft)
01.06.2012 13:30 11,4 C 20,4 C 12,9 C 11,7 C 11,7 C 0,3 C 89 % 95 % 8 % 1015,2 hPa 0,0 l/m 4,8 km/h (1 Bft) SW 225 0 min 0,0 UV-I 9,7 C 11,7 C 6,4 km/h (2 Bft)
01.06.2012 13:35 11,3 C 20,4 C 12,8 C 11,7 C 11,7 C 0,4 C 89 % 95 % 11 % 1015,2 hPa 0,0 l/m 5,1 km/h (1 Bft) SW 225 0 min 0,0 UV-I 9,6 C 11,7 C 4,0 km/h (1 Bft)
01.06.2012 13:40 11,3 C 20,4 C 12,9 C 11,9 C 11,9 C 0,6 C 89 % 95 % 16 % 1015,2 hPa 0,0 l/m 4,8 km/h (1 Bft) S-SW 202 0 min 0,0 UV-I 9,6 C 11,9 C 6,4 km/h (2 Bft)
01.06.2012 13:45 11,5 C 20,4 C 12,7 C 11,9 C 11,9 C 0,4 C 90 % 95 % 11 % 1015,4 hPa 0,0 l/m 5,6 km/h (1 Bft) S-SO 157 0 min 0,0 UV-I 9,9 C 11,9 C 8,9 km/h (2 Bft)
01.06.2012 13:50 11,5 C 20,4 C 12,9 C 12,7 C 12,7 C 1,2 C 90 % 95 % 32 % 1015,4 hPa 0,0 l/m 5,3 km/h (1 Bft) S 180 0 min 0,0 UV-I 9,9 C 12,7 C 4,2 km/h (1 Bft)
01.06.2012 13:55 11,9 C 20,4 C 12,9 C 14,0 C 14,0 C 2,1 C 91 % 95 % 55 % 1015,4 hPa 0,0 l/m 4,7 km/h (1 Bft) S 180 0 min 0,0 UV-I 10,5 C 14,0 C 7,6 km/h (2 Bft)
01.06.2012 14:00 11,9 C 20,4 C 12,9 C 14,4 C 14,4 C 2,5 C 91 % 95 % 66 % 1015,4 hPa 0,0 l/m 4,5 km/h (1 Bft) W-SW 247 0 min 0,0 UV-I 10,5 C 14,4 C 6,0 km/h (2 Bft)
01.06.2012 14:11 12,7 C 20,4 C 13,2 C 16,6 C 16,6 C 3,9 C 90 % 96 % 100 % 1015,5 hPa 0,0 l/m 5,6 km/h (1 Bft) N 0 11 min 0,0 UV-I 11,1 C 16,6 C 4,7 km/h (1 Bft)
01.06.2012 14:20 12,5 C 20,3 C 13,1 C 16,0 C 16,0 C 3,5 C 90 % 95 % 92 % 1015,5 hPa 0,0 l/m 4,5 km/h (1 Bft) S 180 9 min 0,0 UV-I 10,9 C 16,0 C 3,4 km/h (1 Bft)
01.06.2012 14:25 12,3 C 20,3 C 13,0 C 14,9 C 14,9 C 2,6 C 88 % 95 % 68 % 1015,6 hPa 0,0 l/m 4,3 km/h (1 Bft) S 180 0 min 0,0 UV-I 10,4 C 14,9 C 2,7 km/h (1 Bft)
01.06.2012 14:30 12,2 C 20,3 C 13,1 C 15,0 C 15,0 C 2,8 C 88 % 95 % 74 % 1015,6 hPa 0,0 l/m 4,5 km/h (1 Bft) S 180 0 min 0,0 UV-I 10,3 C 15,0 C 3,7 km/h (1 Bft)
01.06.2012 14:35 12,3 C 20,2 C 13,1 C 16,0 C 16,0 C 3,7 C 87 % 95 % 97 % 1015,6 hPa 0,0 l/m 5,1 km/h (1 Bft) SW 225 5 min 0,0 UV-I 10,2 C 16,0 C 3,7 km/h (1 Bft)
01.06.2012 14:40 12,4 C 20,2 C 13,0 C 16,1 C 16,1 C 3,7 C 88 % 95 % 97 % 1015,6 hPa 0,0 l/m 5,6 km/h (1 Bft) W 270 5 min 0,0 UV-I 10,5 C 16,1 C 9,3 km/h (2 Bft)
01.06.2012 14:45 12,5 C 20,2 C 13,1 C 16,2 C 16,2 C 3,7 C 87 % 95 % 97 % 1015,9 hPa 0,0 l/m 4,5 km/h (1 Bft) W-SW 247 5 min 0,0 UV-I 10,4 C 16,2 C 5,5 km/h (1 Bft)
01.06.2012 14:50 12,4 C 20,1 C 13,1 C 16,5 C 16,5 C 4,1 C 87 % 95 % 100 % 1015,9 hPa 0,0 l/m 4,3 km/h (1 Bft) S 180 5 min 0,0 UV-I 10,3 C 16,5 C 11,7 km/h (2 Bft)
01.06.2012 14:55 12,6 C 20,1 C 13,1 C 16,8 C 16,8 C 4,2 C 86 % 95 % 100 % 1015,9 hPa 0,0 l/m 4,5 km/h (1 Bft) SO 135 5 min 0,0 UV-I 10,3 C 16,8 C 7,4 km/h (2 Bft)
01.06.2012 15:00 12,6 C 20,1 C 13,1 C 16,7 C 16,7 C 4,1 C 85 % 95 % 100 % 1015,9 hPa 0,0 l/m 5,0 km/h (1 Bft) S 180 5 min 0,0 UV-I 10,1 C 16,7 C 6,1 km/h (2 Bft)
01.06.2012 15:11 12,4 C 20,0 C 12,8 C 15,0 C 15,0 C 2,6 C 83 % 95 % 68 % 1015,9 hPa 0,0 l/m 5,1 km/h (1 Bft) N 0 0 min 0,0 UV-I 9,6 C 15,0 C 4,0 km/h (1 Bft)
01.06.2012 15:20 12,4 C 19,9 C 12,8 C 14,8 C 14,8 C 2,4 C 81 % 95 % 63 % 1015,9 hPa 0,0 l/m 5,0 km/h (1 Bft) S 180 0 min 0,0 UV-I 9,2 C 14,8 C 3,9 km/h (1 Bft)
01.06.2012 15:25 12,3 C 19,9 C 12,8 C 14,4 C 14,4 C 2,1 C 81 % 95 % 55 % 1016,2 hPa 0,0 l/m 3,7 km/h (1 Bft) SO 135 0 min 0,0 UV-I 9,1 C 14,4 C 0,0 km/h (0 Bft)
01.06.2012 15:30 12,2 C 19,9 C 12,9 C 14,2 C 14,2 C 2,0 C 81 % 95 % 53 % 1016,2 hPa 0,0 l/m 2,9 km/h (1 Bft) W-SW 247 0 min 0,0 UV-I 9,0 C 14,2 C 3,5 km/h (1 Bft)
01.06.2012 15:35 12,0 C 19,9 C 12,7 C 13,6 C 13,6 C 1,6 C 80 % 95 % 42 % 1016,2 hPa 0,0 l/m 2,6 km/h (1 Bft) S-SO 157 0 min 0,0 UV-I 8,7 C 13,6 C 0,0 km/h (0 Bft)
01.06.2012 15:40 11,9 C 19,9 C 12,7 C 13,1 C 13,1 C 1,2 C 80 % 95 % 32 % 1016,2 hPa 0,0 l/m 3,2 km/h (1 Bft) N-NO 22 0 min 0,0 UV-I 8,6 C 13,1 C 9,2 km/h (2 Bft)
01.06.2012 15:45 11,9 C 19,8 C 12,7 C 13,0 C 13,0 C 1,1 C 79 % 95 % 29 % 1016,2 hPa 0,0 l/m 3,9 km/h (1 Bft) SW 225 0 min 0,0 UV-I 8,4 C 13,0 C 3,2 km/h (1 Bft)
01.06.2012 15:50 11,8 C 19,9 C 12,6 C 13,0 C 13,0 C 1,2 C 79 % 95 % 32 % 1016,2 hPa 0,0 l/m 4,3 km/h (1 Bft) S-SW 202 0 min 0,0 UV-I 8,3 C 13,0 C 3,9 km/h (1 Bft)
01.06.2012 15:55 11,7 C 19,8 C 12,7 C 13,0 C 13,0 C 1,3 C 80 % 95 % 34 % 1016,2 hPa 0,0 l/m 3,5 km/h (1 Bft) SW 225 0 min 0,0 UV-I 8,4 C 13,0 C 5,8 km/h (2 Bft)
01.06.2012 16:00 11,7 C 19,8 C 12,7 C 13,2 C 13,2 C 1,5 C 80 % 95 % 39 % 1016,2 hPa 0,0 l/m 3,5 km/h (1 Bft) S 180 0 min 0,0 UV-I 8,4 C 13,2 C 3,4 km/h (1 Bft)
01.06.2012 16:08 12,0 C 19,8 C 12,6 C 14,0 C 14,0 C 2,0 C 79 % 95 % 53 % 1016,4 hPa 0,0 l/m 6,3 km/h (2 Bft) N 0 0 min 0,0 UV-I 8,5 C 14,0 C 12,2 km/h (2 Bft)
01.06.2012 16:25 12,7 C 19,8 C 12,8 C 14,8 C 14,8 C 2,1 C 75 % 95 % 55 % 1016,4 hPa 0,7 l/m 6,8 km/h (2 Bft) O-SO 112 0 min 0,0 UV-I 8,4 C 14,8 C 8,5 km/h (2 Bft)
01.06.2012 16:30 12,7 C 19,8 C 12,8 C 14,8 C 14,8 C 2,1 C 75 % 95 % 55 % 1016,4 hPa 0,0 l/m 6,8 km/h (2 Bft) O-SO 112 0 min 0,0 UV-I 8,4 C 14,8 C 8,5 km/h (2 Bft)
01.06.2012 16:35 12,8 C 19,8 C 12,8 C 15,1 C 15,2 C 2,3 C 73 % 95 % 61 % 1016,4 hPa 0,0 l/m 7,7 km/h (2 Bft) SW 225 0 min 0,0 UV-I 8,1 C 15,2 C 15,4 km/h (3 Bft)
01.06.2012 16:40 12,9 C 19,8 C 12,8 C 15,4 C 15,4 C 2,5 C 73 % 95 % 66 % 1016,4 hPa 0,0 l/m 7,4 km/h (2 Bft) SW 225 0 min 0,0 UV-I 8,2 C 15,4 C 6,4 km/h (2 Bft)
01.06.2012 16:45 12,9 C 19,8 C 13,0 C 15,3 C 15,3 C 2,4 C 73 % 95 % 63 % 1016,7 hPa 0,0 l/m 7,2 km/h (2 Bft) SW 225 0 min 0,0 UV-I 8,2 C 15,3 C 7,2 km/h (2 Bft)
01.06.2012 16:50 12,9 C 19,8 C 13,1 C 15,4 C 15,4 C 2,5 C 73 % 95 % 66 % 1016,7 hPa 0,0 l/m 6,6 km/h (2 Bft) SW 225 0 min 0,0 UV-I 8,2 C 15,4 C 12,6 km/h (3 Bft)
01.06.2012 16:55 13,3 C 19,7 C 13,2 C 16,2 C 16,2 C 2,9 C 73 % 96 % 76 % 1016,7 hPa 0,0 l/m 6,4 km/h (2 Bft) SW 225 0 min 0,0 UV-I 8,6 C 16,2 C 10,0 km/h (2 Bft)
01.06.2012 17:00 13,5 C 19,6 C 13,2 C 16,6 C 16,6 C 3,1 C 70 % 95 % 82 % 1016,7 hPa 0,0 l/m 6,6 km/h (2 Bft) W-SW 247 0 min 0,0 UV-I 8,1 C 16,6 C 11,9 km/h (2 Bft)
01.06.2012 17:09 13,2 C 19,7 C 13,2 C 15,6 C 15,6 C 2,4 C 69 % 95 % 63 % 1016,8 hPa 0,0 l/m 7,9 km/h (2 Bft) N 0 0 min 0,0 UV-I 7,6 C 15,6 C 12,2 km/h (2 Bft)
01.06.2012 17:25 13,0 C 19,7 C 13,2 C 14,5 C 14,5 C 1,5 C 70 % 95 % 39 % 1016,2 hPa 0,0 l/m 6,8 km/h (2 Bft) W-SW 247 0 min 0,0 UV-I 7,7 C 14,5 C 8,0 km/h (2 Bft)
01.06.2012 17:30 13,0 C 19,7 C 13,2 C 14,5 C 14,5 C 1,5 C 70 % 95 % 39 % 1016,2 hPa 0,0 l/m 6,8 km/h (2 Bft) W-SW 247 0 min 0,0 UV-I 7,7 C 14,5 C 8,0 km/h (2 Bft)
01.06.2012 17:35 12,9 C 19,7 C 13,1 C 14,1 C 14,1 C 1,2 C 70 % 95 % 32 % 1016,2 hPa 0,0 l/m 6,1 km/h (2 Bft) W-SW 247 0 min 0,0 UV-I 7,6 C 14,1 C 9,8 km/h (2 Bft)
01.06.2012 17:40 12,9 C 19,7 C 13,2 C 14,1 C 14,1 C 1,2 C 70 % 95 % 32 % 1016,2 hPa 0,0 l/m 6,3 km/h (2 Bft) W-SW 247 0 min 0,0 UV-I 7,6 C 14,1 C 13,7 km/h (3 Bft)
01.06.2012 17:45 12,8 C 19,7 C 13,2 C 14,1 C 14,1 C 1,3 C 69 % 95 % 34 % 1016,9 hPa 0,0 l/m 6,4 km/h (2 Bft) W-SW 247 0 min 0,0 UV-I 7,3 C 14,1 C 9,7 km/h (2 Bft)
01.06.2012 17:50 12,8 C 19,7 C 13,1 C 13,9 C 13,9 C 1,1 C 70 % 95 % 29 % 1016,9 hPa 0,0 l/m 6,6 km/h (2 Bft) SW 225 0 min 0,0 UV-I 7,5 C 13,9 C 7,6 km/h (2 Bft)
01.06.2012 17:55 12,8 C 19,7 C 13,3 C 14,1 C 14,1 C 1,3 C 71 % 95 % 34 % 1016,9 hPa 0,0 l/m 6,0 km/h (2 Bft) W-SW 247 0 min 0,0 UV-I 7,7 C 14,1 C 6,0 km/h (2 Bft)
01.06.2012 18:00 12,8 C 19,7 C 13,3 C 14,0 C 14,0 C 1,2 C 71 % 95 % 32 % 1016,9 hPa 0,0 l/m 5,6 km/h (1 Bft) W 270 0 min 0,0 UV-I 7,7 C 14,0 C 10,8 km/h (2 Bft)
01.06.2012 18:15 12,8 C 19,7 C 13,1 C 13,7 C 13,7 C 0,9 C 69 % 95 % 24 % 1017,2 hPa 0,0 l/m 6,6 km/h (2 Bft) NW 315 0 min 0,0 UV-I 7,3 C 13,7 C 4,0 km/h (1 Bft)
01.06.2012 18:18 12,8 C 19,7 C 13,1 C 13,7 C 13,7 C 0,9 C 69 % 95 % 24 % 1017,2 hPa 0,0 l/m 6,6 km/h (2 Bft) NW 315 0 min 0,0 UV-I 7,3 C 13,7 C 4,0 km/h (1 Bft)
01.06.2012 18:29 12,9 C 19,7 C 13,1 C 13,8 C 13,8 C 0,9 C 69 % 95 % 24 % 1017,2 hPa 0,0 l/m 7,1 km/h (2 Bft) W-SW 247 0 min 0,0 UV-I 7,4 C 13,8 C 11,6 km/h (2 Bft)
01.06.2012 18:30 12,8 C 19,7 C 13,1 C 13,5 C 13,5 C 0,7 C 69 % 95 % 18 % 1017,2 hPa 0,0 l/m 7,2 km/h (2 Bft) W-SW 247 0 min 0,0 UV-I 7,3 C 13,5 C 6,9 km/h (2 Bft)
01.06.2012 18:31 12,8 C 19,7 C 13,1 C 13,5 C 13,5 C 0,7 C 69 % 95 % 18 % 1017,2 hPa 0,0 l/m 7,2 km/h (2 Bft) W-SW 247 0 min 0,0 UV-I 7,3 C 13,5 C 6,9 km/h (2 Bft)
01.06.2012 18:32 12,8 C 19,7 C 13,1 C 13,5 C 13,5 C 0,7 C 69 % 95 % 18 % 1017,2 hPa 0,0 l/m 7,2 km/h (2 Bft) W-SW 247 0 min 0,0 UV-I 7,3 C 13,5 C 6,9 km/h (2 Bft)
01.06.2012 18:33 12,8 C 19,7 C 13,1 C 13,5 C 13,5 C 0,7 C 69 % 95 % 18 % 1017,2 hPa 0,0 l/m 7,2 km/h (2 Bft) W-SW 247 0 min 0,0 UV-I 7,3 C 13,5 C 6,9 km/h (2 Bft)
01.06.2012 18:36 12,9 C 19,7 C 13,1 C 13,6 C 13,6 C 0,7 C 70 % 95 % 18 % 1017,2 hPa 0,0 l/m 6,4 km/h (2 Bft) SW 225 0 min 0,0 UV-I 7,6 C 13,6 C 7,6 km/h (2 Bft)
01.06.2012 18:40 12,8 C 19,7 C 13,1 C 13,5 C 13,5 C 0,7 C 70 % 95 % 18 % 1017,2 hPa 0,0 l/m 5,6 km/h (1 Bft) W-SW 247 0 min 0,0 UV-I 7,5 C 13,5 C 5,6 km/h (1 Bft)
01.06.2012 18:45 12,8 C 19,7 C 13,1 C 13,5 C 13,5 C 0,7 C 70 % 95 % 18 % 1017,2 hPa 0,0 l/m 5,8 km/h (2 Bft) SW 225 0 min 0,0 UV-I 7,5 C 13,5 C 9,7 km/h (2 Bft)
01.06.2012 18:50 12,8 C 19,7 C 13,1 C 13,5 C 13,5 C 0,7 C 70 % 95 % 18 % 1017,2 hPa 0,0 l/m 5,8 km/h (2 Bft) SW 225 0 min 0,0 UV-I 7,5 C 13,5 C 9,7 km/h (2 Bft)
01.06.2012 18:55 12,7 C 19,7 C 13,1 C 13,3 C 13,3 C 0,6 C 71 % 95 % 16 % 1017,2 hPa 0,0 l/m 5,6 km/h (1 Bft) S 180 0 min 0,0 UV-I 7,6 C 13,3 C 7,9 km/h (2 Bft)
01.06.2012 19:00 12,7 C 19,7 C 13,1 C 13,3 C 13,3 C 0,6 C 72 % 95 % 16 % 1017,2 hPa 0,0 l/m 5,6 km/h (1 Bft) W-SW 247 0 min 0,0 UV-I 7,8 C 13,3 C 5,8 km/h (2 Bft)
01.06.2012 19:06 12,7 C 19,7 C 13,2 C 13,3 C 13,3 C 0,6 C 72 % 95 % 16 % 1017,4 hPa 0,0 l/m 4,8 km/h (1 Bft) N 0 0 min 0,0 UV-I 7,8 C 13,3 C 3,9 km/h (1 Bft)
01.06.2012 19:20 12,7 C 19,7 C 13,1 C 13,1 C 13,1 C 0,4 C 71 % 95 % 11 % 1017,4 hPa 0,0 l/m 5,5 km/h (1 Bft) W-NW 292 0 min 0,0 UV-I 7,6 C 13,1 C 6,4 km/h (2 Bft)
01.06.2012 19:25 12,5 C 19,7 C 13,0 C 13,0 C 13,0 C 0,5 C 70 % 95 % 13 % 1017,5 hPa 0,0 l/m 5,5 km/h (1 Bft) W-SW 247 0 min 0,0 UV-I 7,2 C 13,0 C 5,0 km/h (1 Bft)
01.06.2012 19:30 12,5 C 19,7 C 13,1 C 12,7 C 12,7 C 0,2 C 70 % 95 % 5 % 1017,5 hPa 0,0 l/m 6,1 km/h (2 Bft) S-SW 202 0 min 0,0 UV-I 7,2 C 12,7 C 14,5 km/h (3 Bft)
01.06.2012 19:35 12,5 C 19,7 C 13,1 C 12,7 C 12,7 C 0,2 C 70 % 94 % 5 % 1017,5 hPa 0,0 l/m 6,3 km/h (2 Bft) W-SW 247 0 min 0,0 UV-I 7,2 C 12,7 C 7,2 km/h (2 Bft)
01.06.2012 19:40 12,4 C 19,7 C 13,0 C 12,6 C 12,6 C 0,2 C 70 % 94 % 5 % 1017,5 hPa 0,0 l/m 6,1 km/h (2 Bft) W-SW 247 0 min 0,0 UV-I 7,1 C 12,6 C 6,9 km/h (2 Bft)
01.06.2012 19:45 12,4 C 19,7 C 12,9 C 12,7 C 12,7 C 0,3 C 71 % 94 % 8 % 1017,8 hPa 0,0 l/m 5,6 km/h (1 Bft) SW 225 0 min 0,0 UV-I 7,3 C 12,7 C 9,8 km/h (2 Bft)
01.06.2012 19:50 12,4 C 19,7 C 13,0 C 12,8 C 12,8 C 0,4 C 71 % 94 % 11 % 1017,8 hPa 0,0 l/m 5,3 km/h (1 Bft) W-SW 247 0 min 0,0 UV-I 7,3 C 12,8 C 5,1 km/h (1 Bft)
01.06.2012 19:55 12,3 C 19,7 C 13,1 C 12,6 C 12,6 C 0,3 C 72 % 94 % 8 % 1017,8 hPa 0,0 l/m 5,8 km/h (2 Bft) W-SW 247 0 min 0,0 UV-I 7,4 C 12,6 C 5,1 km/h (1 Bft)
01.06.2012 20:00 12,3 C 19,7 C 13,1 C 12,7 C 12,7 C 0,4 C 72 % 94 % 11 % 1017,8 hPa 0,0 l/m 5,6 km/h (1 Bft) W 270 0 min 0,0 UV-I 7,4 C 12,7 C 5,0 km/h (1 Bft)
01.06.2012 20:11 12,3 C 19,7 C 12,9 C 12,2 C 12,1 C 0,0 C 72 % 94 % 0 % 1017,9 hPa 0,0 l/m 6,9 km/h (2 Bft) N 0 0 min 0,0 UV-I 7,4 C 12,1 C 9,5 km/h (2 Bft)
01.06.2012 20:20 12,3 C 19,7 C 12,8 C 12,2 C 12,1 C 0,0 C 72 % 94 % 0 % 1017,9 hPa 0,0 l/m 6,4 km/h (2 Bft) SW 225 0 min 0,0 UV-I 7,4 C 12,1 C 6,3 km/h (2 Bft)
01.06.2012 20:25 12,1 C 19,7 C 12,8 C 12,2 C 12,2 C 0,1 C 72 % 93 % 3 % 1018,0 hPa 0,0 l/m 6,1 km/h (2 Bft) S-SW 202 0 min 0,0 UV-I 7,2 C 12,2 C 6,6 km/h (2 Bft)
01.06.2012 20:30 12,1 C 19,7 C 12,8 C 12,1 C 12,0 C 0,0 C 72 % 93 % 0 % 1018,0 hPa 0,0 l/m 6,3 km/h (2 Bft) W-SW 247 0 min 0,0 UV-I 7,2 C 12,0 C 6,1 km/h (2 Bft)
01.06.2012 20:35 12,0 C 19,7 C 12,8 C 12,1 C 12,1 C 0,1 C 73 % 93 % 3 % 1018,0 hPa 0,0 l/m 5,6 km/h (1 Bft) W 270 0 min 0,0 UV-I 7,3 C 12,1 C 7,7 km/h (2 Bft)
01.06.2012 20:40 12,1 C 19,7 C 12,8 C 12,2 C 12,2 C 0,1 C 73 % 93 % 3 % 1018,0 hPa 0,0 l/m 5,5 km/h (1 Bft) W-SW 247 0 min 0,0 UV-I 7,4 C 12,2 C 7,2 km/h (2 Bft)
01.06.2012 20:45 12,0 C 19,7 C 12,8 C 12,1 C 12,1 C 0,1 C 73 % 93 % 3 % 1017,7 hPa 0,0 l/m 5,0 km/h (1 Bft) S-SW 202 0 min 0,0 UV-I 7,3 C 12,1 C 7,7 km/h (2 Bft)
01.06.2012 20:50 11,9 C 19,7 C 12,8 C 12,0 C 12,0 C 0,1 C 74 % 93 % 3 % 1017,7 hPa 0,0 l/m 4,8 km/h (1 Bft) SW 225 0 min 0,0 UV-I 7,4 C 12,0 C 4,2 km/h (1 Bft)
01.06.2012 20:55 11,8 C 19,7 C 12,8 C 11,9 C 11,9 C 0,1 C 74 % 93 % 3 % 1017,7 hPa 0,0 l/m 4,5 km/h (1 Bft) SW 225 0 min 0,0 UV-I 7,3 C 11,9 C 5,6 km/h (1 Bft)
01.06.2012 21:00 11,9 C 19,7 C 12,8 C 11,9 C 11,8 C 0,0 C 74 % 93 % 0 % 1017,7 hPa 0,0 l/m 4,2 km/h (1 Bft) W-SW 247 0 min 0,0 UV-I 7,4 C 11,8 C 4,2 km/h (1 Bft)
01.06.2012 21:12 11,7 C 19,7 C 12,8 C 11,7 C 11,6 C 0,0 C 74 % 93 % 0 % 1017,7 hPa 0,0 l/m 5,0 km/h (1 Bft) N 0 0 min 0,0 UV-I 7,2 C 11,6 C 10,0 km/h (2 Bft)
01.06.2012 21:20 11,6 C 19,7 C 12,8 C 11,5 C 11,3 C 0,0 C 75 % 93 % 0 % 1017,7 hPa 0,0 l/m 5,3 km/h (1 Bft) S-SW 202 0 min 0,0 UV-I 7,3 C 11,3 C 6,1 km/h (2 Bft)
01.06.2012 21:25 11,5 C 19,7 C 12,7 C 11,5 C 11,4 C 0,0 C 75 % 93 % 0 % 1017,8 hPa 0,0 l/m 4,5 km/h (1 Bft) W-SW 247 0 min 0,0 UV-I 7,2 C 11,4 C 4,2 km/h (1 Bft)
01.06.2012 21:30 11,4 C 19,7 C 12,7 C 11,4 C 11,4 C 0,0 C 76 % 93 % 0 % 1017,8 hPa 0,0 l/m 4,3 km/h (1 Bft) SW 225 0 min 0,0 UV-I 7,3 C 11,4 C 10,1 km/h (2 Bft)
01.06.2012 21:35 11,5 C 19,7 C 12,6 C 11,5 C 11,4 C 0,0 C 75 % 93 % 0 % 1017,8 hPa 0,0 l/m 4,8 km/h (1 Bft) W-SW 247 0 min 0,0 UV-I 7,2 C 11,4 C 6,0 km/h (2 Bft)
01.06.2012 21:40 11,5 C 19,7 C 12,7 C 11,4 C 11,2 C 0,0 C 75 % 93 % 0 % 1017,8 hPa 0,0 l/m 5,5 km/h (1 Bft) W-SW 247 0 min 0,0 UV-I 7,2 C 11,2 C 5,8 km/h (2 Bft)
01.06.2012 21:45 11,3 C 19,7 C 12,7 C 11,3 C 11,2 C 0,0 C 76 % 93 % 0 % 1017,8 hPa 0,0 l/m 4,5 km/h (1 Bft) SW 225 0 min 0,0 UV-I 7,2 C 11,2 C 4,7 km/h (1 Bft)
01.06.2012 21:50 11,2 C 19,7 C 12,6 C 11,2 C 11,1 C 0,0 C 76 % 94 % 0 % 1017,8 hPa 0,0 l/m 3,7 km/h (1 Bft) W 270 0 min 0,0 UV-I 7,1 C 11,1 C 5,8 km/h (2 Bft)
01.06.2012 21:55 11,2 C 19,7 C 12,7 C 11,1 C 10,9 C 0,0 C 76 % 94 % 0 % 1017,8 hPa 0,0 l/m 3,2 km/h (1 Bft) W-SW 247 0 min 0,0 UV-I 7,1 C 10,9 C 5,3 km/h (1 Bft)
01.06.2012 22:00 11,1 C 19,7 C 12,7 C 11,0 C 10,8 C 0,0 C 76 % 94 % 0 % 1017,8 hPa 0,0 l/m 3,7 km/h (1 Bft) S-SW 202 0 min 0,0 UV-I 7,0 C 10,8 C 5,1 km/h (1 Bft)
01.06.2012 22:11 10,8 C 19,7 C 12,5 C 10,6 C 10,3 C 0,0 C 76 % 94 % 0 % 1017,9 hPa 0,0 l/m 3,2 km/h (1 Bft) N 0 0 min 0,0 UV-I 6,7 C 10,3 C 4,7 km/h (1 Bft)
01.06.2012 22:20 10,8 C 19,7 C 12,5 C 10,6 C 10,2 C 0,0 C 77 % 94 % 0 % 1017,9 hPa 0,0 l/m 3,5 km/h (1 Bft) W-SW 247 0 min 0,0 UV-I 6,9 C 10,2 C 3,7 km/h (1 Bft)
01.06.2012 22:25 10,7 C 19,7 C 12,4 C 10,4 C 9,9 C 0,0 C 77 % 94 % 0 % 1018,0 hPa 0,0 l/m 1,9 km/h (1 Bft) SW 225 0 min 0,0 UV-I 6,8 C 9,9 C 2,1 km/h (1 Bft)
01.06.2012 22:30 10,5 C 19,7 C 12,4 C 10,2 C 9,7 C 0,0 C 77 % 94 % 0 % 1018,0 hPa 0,0 l/m 0,6 km/h (0 Bft) NW 315 0 min 0,0 UV-I 6,6 C 9,7 C 0,0 km/h (0 Bft)
01.06.2012 22:35 10,4 C 19,7 C 12,5 C 10,1 C 9,4 C 0,0 C 78 % 94 % 0 % 1018,0 hPa 0,0 l/m 1,3 km/h (1 Bft) SW 225 0 min 0,0 UV-I 6,7 C 9,4 C 4,3 km/h (1 Bft)
01.06.2012 22:40 10,3 C 19,7 C 12,5 C 10,0 C 9,4 C 0,0 C 78 % 94 % 0 % 1018,0 hPa 0,0 l/m 1,9 km/h (1 Bft) SW 225 0 min 0,0 UV-I 6,6 C 9,4 C 3,2 km/h (1 Bft)
01.06.2012 22:45 10,3 C 19,7 C 12,5 C 10,1 C 9,7 C 0,0 C 78 % 94 % 0 % 1018,2 hPa 0,0 l/m 3,1 km/h (1 Bft) SW 225 0 min 0,0 UV-I 6,6 C 9,7 C 4,7 km/h (1 Bft)
01.06.2012 22:50 10,3 C 19,7 C 12,4 C 10,2 C 9,9 C 0,0 C 79 % 94 % 0 % 1018,2 hPa 0,0 l/m 4,2 km/h (1 Bft) SW 225 0 min 0,0 UV-I 6,8 C 9,9 C 8,7 km/h (2 Bft)
01.06.2012 22:55 10,3 C 19,7 C 12,3 C 10,2 C 9,9 C 0,0 C 79 % 94 % 0 % 1018,2 hPa 0,0 l/m 4,3 km/h (1 Bft) SW 225 0 min 0,0 UV-I 6,8 C 9,9 C 3,7 km/h (1 Bft)
01.06.2012 23:00 10,3 C 19,7 C 12,3 C 10,2 C 10,0 C 0,0 C 79 % 94 % 0 % 1018,2 hPa 0,0 l/m 3,7 km/h (1 Bft) S-SW 202 0 min 0,0 UV-I 6,8 C 10,0 C 5,8 km/h (2 Bft)
01.06.2012 23:11 10,2 C 19,7 C 12,2 C 10,1 C 9,9 C 0,0 C 78 % 94 % 0 % 1017,9 hPa 0,0 l/m 3,5 km/h (1 Bft) N 0 0 min 0,0 UV-I 6,5 C 9,9 C 3,5 km/h (1 Bft)
01.06.2012 23:20 10,2 C 19,7 C 12,3 C 10,1 C 9,8 C 0,0 C 79 % 94 % 0 % 1017,9 hPa 0,0 l/m 2,9 km/h (1 Bft) SW 225 0 min 0,0 UV-I 6,7 C 9,8 C 3,7 km/h (1 Bft)
01.06.2012 23:25 10,1 C 19,7 C 12,3 C 10,0 C 9,7 C 0,0 C 79 % 94 % 0 % 1017,9 hPa 0,0 l/m 2,7 km/h (1 Bft) SW 225 0 min 0,0 UV-I 6,6 C 9,7 C 2,7 km/h (1 Bft)
01.06.2012 23:30 10,0 C 19,7 C 12,3 C 9,9 C 9,6 C 0,0 C 79 % 94 % 0 % 1017,9 hPa 0,0 l/m 2,9 km/h (1 Bft) W-SW 247 0 min 0,0 UV-I 6,5 C 9,6 C 3,7 km/h (1 Bft)
01.06.2012 23:35 10,1 C 19,7 C 12,2 C 9,9 C 9,5 C 0,0 C 79 % 94 % 0 % 1017,9 hPa 0,0 l/m 3,1 km/h (1 Bft) W 270 0 min 0,0 UV-I 6,6 C 9,5 C 6,4 km/h (2 Bft)
01.06.2012 23:40 10,0 C 19,7 C 12,1 C 9,8 C 9,4 C 0,0 C 79 % 94 % 0 % 1017,9 hPa 0,0 l/m 3,4 km/h (1 Bft) W-SW 247 0 min 0,0 UV-I 6,5 C 9,4 C 5,5 km/h (1 Bft)
01.06.2012 23:45 9,9 C 19,7 C 12,1 C 9,7 C 9,4 C 0,0 C 80 % 94 % 0 % 1017,8 hPa 0,0 l/m 3,5 km/h (1 Bft) SW 225 0 min 0,0 UV-I 6,6 C 9,4 C 2,3 km/h (1 Bft)
01.06.2012 23:50 9,9 C 19,7 C 12,1 C 9,7 C 9,4 C 0,0 C 80 % 94 % 0 % 1017,8 hPa 0,0 l/m 3,5 km/h (1 Bft) W 270 0 min 0,0 UV-I 6,6 C 9,4 C 3,1 km/h (1 Bft)
01.06.2012 23:55 9,9 C 19,7 C 12,1 C 9,7 C 9,4 C 0,0 C 80 % 94 % 0 % 1017,8 hPa 0,0 l/m 3,9 km/h (1 Bft) SW 225 0 min 0,0 UV-I 6,6 C 9,4 C 3,5 km/h (1 Bft)
_ Min-Zeit 23:45 17:00 23:40 23:45 22:35 00:00 17:09 20:25 00:00 01:45 - 22:30 - - - 00:00 23:30 22:35 09:08
Minimum _ 9,9 C 19,6 C 12,1 C 9,7 C 9,4 C 0,0 C 69 % 93 % 0 % 1010,6 hPa - 0,6 km/h (0 Bft) - - - 0,0 UV-I 6,5 C 9,4 C 0,0 km/h (0 Bft)
_ Max-Zeit 00:00 00:00 00:00 14:55 14:55 14:55 07:50 11:11 14:11 22:45 00:13 03:15 - - 14:11 00:00 00:00 14:55 00:13
Maximum _ 14,2 C 22,2 C 15,1 C 16,8 C 16,8 C 4,2 C 91 % 96 % 100 % 1018,2 hPa 3,4 l/m 10,1 km/h
W-SW (2 Bft)
- - 11 min 0,0 UV-I 12,6 C 16,8 C 32,0 km/h
NW (5 Bft)
Durchschnitt _ 12,2 C 20,5 C 13,2 C 12,9 C 12,7 C 0,7 C 84 % 95 % 18 % 1014,5 hPa #19,2 l/m 5,7 km/h (1 Bft) W-SW - #50 min. 0,0 UV-I 9,5 C 12,7 C 7,5 km/h (2 Bft)
2012 www.wetterstation-wechselburg.de